Location: Dos Palmas
(32.4468°N, 116.8732°W)
Time: 13:14:37
(UTC+00:00)

SeaSat 1 - Pass Details

Date: 20 June 2021
Orbit: 745 x 746 km, 108.0° (Epoch: 31 July)

Event Time Altitude Azimuth Distance (km) Brightness Sun altitude
Rises 10:51:01 0° 18° (NNE) 3,191 6.9 -19.2°
Reaches altitude 10° 10:53:19 10° 15° (NNE) 2,265 5.8 -18.9°
Maximum altitude 10:58:08 58° 297° (WNW) 867 2.6 -18.2°
Enters shadow 11:00:13 32° 233° (SW) 1,250 3.0 -17.9°
